Other Surface Observations
Issued by NWS

Home | Current Version | Previous Version | Text Only | Print | Product List | Glossary On
Versions: 1 2 3 4 5 6 7 8 9 10 11 12 13 14 15 16 17 18 19 20 21 22 23 24 25 26 27 28 29 30 31 32 33 34 35 36 37 38 39 40 41 42 43 44 45 46 47 48 49 50
000
SXUS52 KTAE 230318
OSOTAE
OSOTAE
North Florida/South Alabama/Southwest Georgia Weather Roundup
National Weather Service Tallahassee Florida
1100 PM EDT WED OCT 22 2014

Note: "fair" indicates few or no clouds below 12,000 feet with no
significant weather and/or obstructions to visibility.

!FLZ017-115-028-034-025-230400
...North Florida...

CITY           SKY/WX    TMP DP  RH WIND       PRES   REMARKS
TALLAHASSEE    CLEAR     63  45  51 N3        30.07R
APALACHICOLA   CLEAR     64  50  60 NE7       30.05R
PERRY          CLEAR     59  46  63 NE3       30.07R
CROSS CITY       N/A     55  51  86 E3        30.05R
JACKSONVILLE   CLEAR     55  53  93 CALM      30.06R
$$

!FLZ112-006-005-002-011-230400
...Florida Panhandle...

CITY           SKY/WX    TMP DP  RH WIND       PRES   REMARKS
MARIANNA       NOT AVBL
BONIFAY        NOT AVBL
PANAMA CITY NW FAIR      56  46  69 N5        30.07R
TYNDALL AFB    CLEAR     65  48  54 NE7       30.07R
TYND DRONE APT NOT AVBL
DE FUNIAK SPR  FAIR      59  45  60 N6        30.09R
EGLIN AFB      CLEAR     56  46  69 N7        30.08R
DESTIN         CLEAR     66  48  52 N7        30.08R
HURLBURT       CLEAR     55  45  70 N7        30.08R
CRESTVIEW      CLEAR     56  45  66 NE5       30.10R
PENSACOLA      CLEAR     61  49  64 N3        30.08R
$$

!ALZ063-066-230400
...South Alabama...

CITY           SKY/WX    TMP DP  RH WIND       PRES   REMARKS
DOTHAN         CLEAR     51  45  79 N3        30.12R
OZARK CAIRNS   CLEAR     54  46  74 CALM      30.09R
FT RUCKER HELI CLEAR     50  47  89 CALM      30.08R
RUCKER HELI 3  FAIR      56  46  70 NW2       30.11R
RUCKER HELI 2  FAIR      53  46  77 CALM      30.09R
FLORALA APT    CLEAR     55  45  68 N3        30.12R
ANDALUSIA      CLEAR     60  45  57 N5        30.10R
TROY           CLEAR     48  45  89 CALM      30.11R
EUFALA         FAIR      47  45  93 CALM      30.10R
MOBILE         CLEAR     58  47  66 NE7       30.10R
$$

!GAZ120>161-230400
...Southwest and South Central Georgia...

CITY           SKY/WX    TMP DP  RH WIND       PRES   REMARKS
THOMASVILLE    FAIR      54  48  82 CALM      30.09R
BAINBRIDGE     CLEAR     59  52  77 CALM      30.08S
MOODY AFB      CLEAR     53  47  82 NW1       30.07R
VALDOSTA       CLEAR     52  45  77 CALM      30.07R
MOULTRIE       CLEAR     54  50  87 CALM      30.09R
BLAKELY        CLEAR     54  50  87 CALM        N/A
ALBANY         CLEAR     56  47  71 CALM      30.10R
TIFTON         FAIR      54  46  72 CALM      30.08R
FITZGERALD     FAIR      55  44  67 NE3       30.10S
CORDELE          N/A     51  48  89 CALM      30.10S FOG
AMERICUS       FAIR      50  46  87 CALM      30.11S
HOMERVILLE     FAIR      54  52  94 CALM      30.08S
$$

!GMZ750-755-770-775-230400
...Coastal and Buoy Obs...

STATION/POSITION TIME  TEMP    WIND        PRES    VSBY  WAVE
                       AIR SEA DIR/SP/G                  HT/PER
                 (UTC) (F)     (DEG/KT/KT) (MB)    (MI)  (FT/S)
KEATON BEACH     0300   59      30/  6/  8 1017.8R
CEDAR KEY        0300   66      60/ 15/ 17 1017.4R
C TOWER          0300   73      40/ 16/ 18 1016.9R
APALACHICOLA BUO 0300   76 81   40/ 14/ 17 1015.8R         3/ 5
PANAMA CITY BUOY 0240   76 80   30/ 16/ 17 1016.4R         3/ 5
MOBILE BUOY      0153   75 79   40/ 14/ 16 1017.9          3/ 5
ORANGE BCH AL BU 0300   72 78   30/ 17/ 21 1017.6R         2/ 4
$$



USA.gov is the U.S. government's official web portal to all federal, state and local government web resources and services.